星链-36995(STARLINK-36995)

导读

STARLINK-36995(NORAD编号68143)是美国SpaceX公司星链(Starlink)星座中的一颗近地轨道通信卫星,隶属于全球最大卫星互联网星座项目。 星链卫星采用紧凑平板设计,可通过猎鹰9号火箭密集发射,借助星间激光链路实现高速数据传输,为全球提供低延迟宽带互联网服务,支持流媒体、视频通话等应用。 该卫星属于SpaceX降轨调整计划涉及的星链卫星之一,2026年SpaceX将把包括它在内的约4400颗星链卫星轨道从550公里降至480公里,降低碰撞风险,减少太空碎片威胁,提升太空运行安全性。目前该卫星随星链星座整体在轨正常运行,为全球网络覆盖提供支撑。

Basic Information
目录编号:
68143
目录名称:
STARLINK-36995
国际标识:
2026-049B
轨道中心:
EARTH
卫星名称:
星链-36995
卫星全名:
星链-36995(STARLINK-36995)
卫星状态:
在轨 (已飞行176 天)
发射日期:
2026-03-13 UTC
国别 :
美国 (US)
星等 :
--
Orbit Information
数据来源 国际轨道数据 AOE轨道数据
星历时间 2026-09-05T09:18:16+0800
10小时前
查看轨道信息
2026-09-04T21:00:00+0800
23小时前
查看轨道信息
半长轴 6843.628km 6843.603km
偏心率 0.0001881 0.0001845
轨道倾角 97.285° 97.282°
近地点辐角 92.944° 106.759°
升交点赤经 268.226° 267.720°
平近点角 267.201° 305.013°
近地点 464.203km 464.203km
远地点 466.779km 466.729km
周期 93.905分钟 93.905分钟
每日圈数 15.334627 15.334711
Detailed Information
固有亮度:
5
最大亮度:
2.5
卫星平台:
Starlink V1.0
覆盖范围:
全球
运营商:
太空探索技术公司
运营商所在国:
美国
制造商(研发单位):
太空探索技术公司
制造商所在国:
美国
使用方式:
暂无
Satellite Introduction
Starlink 计划是 SpaceX 推出的全球卫星互联网项目,通过发射低轨道卫星,为全球尤其是偏远地区提供高速、低延迟的互联网服务。自 2019 年起,Starlink 已部署数千颗卫星,旨在缩小全球数字鸿沟,推动互联网普及。该项目还为军事、航空等行业提供通信支持,带来广泛经济效益。
2D Orbit Map
3D Orbit Map
Orbit Altitude Analysis Chart
Orbit Inclination Analysis Chart
Orbit Comprehensive Analysis Chart
View Comprehensive Chart